Location: Asheville, NC
(35.6000°N, 82.5500°W)
Time: 22:44:06
(UTC-04:00)

JUGNU - Pass Details

Date: 05 January 2018
Orbit: 837 x 864 km, 20.0° (Epoch: 26 April)

Event Time Altitude Azimuth Distance (km) Brightness Sun altitude
Rises 19:26:46 0° 239° (WSW) 3,420 ? -22.9°
Reaches altitude 10° 19:30:13 10° 220° (SW) 2,484 ? -23.5°
Maximum altitude 19:33:58 17° 181° (S) 2,022 ? -24.3°
Enters shadow 19:36:20 14° 153° (SSE) 2,219 ? -24.8°
